Temp
15 14 14 15 15 15 15 14 14 14 14 14 14 14 14 14 14 14 14 13 13 13 13 13 12 12 12 13 13 13 13 13 13 14 14 15 15 15 15 15 15 16 15 14 13 13 14 14 14 15 15 15 15 15 15 14 14 13 13 13 12 12 12 12 12 11 10 10 9
15 15 14 14 15 15 15 14 15 15 15 15 14 14 14 14 14 14 14 14 13 13 13 13 13 12 12 13 13 13 13 13 14 14 14 14 14 14 14 14 15 15 14 13 13 13 14 14 14 14 14 14 14 14 14 14 13 13 13 13 12 12 12 11 11 10 9 9 9
16 16 15 15 15 15 14 15 15 15 15 15 14 14 14 14 14 15 15 14 14 13 13 13 13 13 13 13 13 13 13 13 14 14 14 14 13 13 13 13 13 13 13 13 13 13 13 13 13 13 14 14 14 13 13 13 12 12 12 12 11 11 10 9 9 9 9 9 9
16 16 16 16 15 15 14 14 15 15 15 15 15 14 14 15 15 15 15 15 14 14 14 14 13 13 13 13 13 13 13 13 14 14 13 13 14 14 13 12 13 13 13 13 13 13 13 13 13 13 13 13 13 13 13 12 12 12 11 11 10 10 9 9 9 9 9 9 9
16 16 16 16 16 15 15 14 15 15 15 15 15 14 15 15 16 16 16 16 15 15 14 14 14 13 13 13 13 13 13 14 14 14 14 14 14 14 13 12 13 13 13 13 13 13 12 12 12 12 12 12 12 12 12 12 11 11 11 10 10 9 9 9 9 9 9 8 9
16 16 16 16 16 15 15 15 15 15 15 15 15 15 15 15 16 17 17 17 17 16 15 15 14 14 13 13 13 13 14 14 14 14 14 14 14 13 12 12 13 13 13 13 12 12 12 12 12 12 12 12 11 11 11 11 11 11 10 10 9 9 9 9 9 9 8 8 9
16 15 15 15 15 15 15 15 15 15 15 15 15 15 15 15 15 16 17 18 18 18 17 16 15 15 14 14 14 14 14 14 14 14 14 14 13 13 12 12 12 12 12 12 12 12 12 11 11 11 11 11 11 11 10 10 10 10 10 9 9 9 8 8 8 8 8 8 8
16 16 16 16 16 16 16 16 15 15 15 15 15 15 16 16 15 15 15 16 17 17 17 17 16 16 16 15 15 15 15 15 14 14 14 13 13 12 12 12 12 12 12 12 12 11 11 11 11 11 10 10 10 10 10 10 9 9 9 9 9 8 8 8 8 8 8 8 8
16 16 16 16 16 16 16 16 16 15 15 15 16 16 16 16 16 15 15 14 15 15 16 16 17 16 16 16 16 15 15 15 14 14 13 13 13 12 12 12 12 12 12 11 11 11 11 10 10 10 10 10 10 9 9 9 9 9 9 9 9 8 8 7 7 7 7 8 8
16 16 16 16 16 16 16 16 16 16 16 16 16 16 16 16 16 15 15 15 14 14 15 15 16 16 16 15 15 15 15 14 14 14 13 13 13 12 12 12 12 12 11 11 11 10 10 10 10 10 10 9 9 9 9 9 8 8 8 8 8 8 8 7 7 7 7 7 8
16 16 16 16 16 16 16 16 16 16 16 16 16 16 16 16 15 15 15 14 14 14 14 15 15 15 15 15 14 14 14 14 14 14 13 13 13 12 12 12 11 11 11 11 10 10 10 10 10 9 9 9 9 9 8 8 8 8 8 8 8 8 8 8 7 7 6 7 7
15 15 15 15 15 15 15 16 16 16 16 16 16 16 16 16 15 15 14 14 14 14 14 14 14 14 14 14 13 13 13 13 13 13 13 13 13 12 12 11 11 11 10 10 10 10 9 9 9 9 9 8 8 8 8 8 8 8 8 7 7 8 8 8 7 7 6 6 7
14 14 14 14 14 14 14 15 15 15 15 15 16 16 16 15 15 15 14 14 14 14 14 13 13 13 13 13 13 12 12 12 12 12 12 13 13 12 12 11 11 10 10 10 9 9 9 9 9 9 8 8 8 8 7 7 7 7 7 7 7 7 7 7 7 7 7 7 6
14 14 14 14 14 14 14 14 14 14 15 15 15 15 15 15 15 14 14 14 14 13 13 13 13 12 12 12 12 11 11 11 11 11 11 11 12 12 11 11 10 10 10 9 9 9 9 9 8 8 8 8 7 7 7 6 6 7 7 6 6 6 6 7 7 7 7 6 6
14 14 14 14 14 13 13 13 13 14 14 14 14 14 14 14 14 14 13 13 13 13 13 13 12 12 12 12 11 11 11 11 10 10 10 10 11 11 11 10 10 9 9 9 9 9 8 8 8 8 7 7 7 6 6 6 6 6 6 6 5 5 5 6 6 6 6 6 6
14 14 14 14 14 13 13 13 13 13 13 13 13 13 13 13 13 13 13 13 13 12 12 12 12 12 11 11 11 11 11 10 10 10 10 10 10 10 10 9 9 9 9 8 8 8 8 8 8 7 7 7 6 6 6 5 5 5 5 5 5 5 5 5 5 5 5 6 5
14 14 14 14 13 13 13 13 13 13 13 13 13 13 13 13 13 13 13 12 12 12 12 11 11 11 11 11 11 10 10 10 10 9 9 9 9 9 9 8 8 8 8 8 8 8 7 7 7 7 7 7 6 6 6 5 5 5 4 4 4 4 4 4 4 4 5 5 5
14 14 13 13 13 13 13 13 13 13 13 13 13 13 13 13 13 12 12 12 12 11 11 11 11 10 10 10 10 10 10 9 9 9 8 8 8 8 8 8 8 7 7 7 7 7 7 7 7 7 7 6 6 6 5 5 5 4 4 4 4 4 4 4 4 4 4 4 5
13 13 13 13 13 13 13 13 13 13 13 13 13 13 13 12 12 12 12 12 12 11 11 11 10 10 10 10 10 9 9 8 8 8 8 8 8 7 7 7 7 7 7 7 7 7 7 7 7 7 6 6 6 5 5 5 5 4 4 4 4 4 4 4 4 4 4 4 4
13 13 13 13 13 13 12 12 12 12 12 12 13 12 12 12 12 12 12 12 12 11 11 11 10 10 10 9 9 9 8 8 8 7 7 7 7 7 7 7 7 7 7 7 7 6 6 6 6 6 6 6 6 5 5 5 4 4 4 4 4 4 4 3 3 3 4 4 4
13 13 13 13 13 12 12 12 12 12 12 12 12 12 12 12 12 12 12 12 11 11 11 10 10 10 9 9 8 8 8 7 7 7 7 7 7 7 7 7 7 6 6 6 6 6 6 6 6 6 6 6 5 5 5 4 4 4 4 4 4 4 3 3 3 3 4 4 4
12 12 12 12 12 12 12 12 12 12 12 12 12 12 12 12 12 12 11 11 11 10 10 10 9 9 9 8 8 8 7 7 7 7 7 7 7 7 7 7 6 6 6 6 6 6 6 6 6 6 5 5 5 5 4 4 4 4 4 4 3 3 3 3 4 4 4 4 4
12 12 12 12 12 12 12 11 11 11 11 11 11 11 11 11 11 11 11 10 10 10 10 9 9 9 8 8 8 7 7 7 7 7 7 7 7 7 7 6 6 6 6 6 6 6 6 6 5 5 5 5 5 5 4 4 4 3 3 3 3 3 3 3 4 4 4 4 4
11 11 11 11 11 11 11 11 11 11 11 11 11 11 11 11 11 10 10 10 10 9 9 9 9 8 8 8 7 7 7 7 7 7 7 6 6 6 6 6 6 6 6 6 6 5 5 5 5 5 5 5 4 4 4 3 3 3 3 3 3 3 3 3 3 4 4 3 3
11 10 10 10 11 11 11 11 11 11 11 10 10 10 10 10 10 10 10 10 9 9 9 9 8 8 8 8 7 7 7 7 6 6 6 6 6 6 6 6 6 6 6 5 5 5 5 5 5 5 4 4 4 4 3 3 3 3 2 2 3 3 3 3 3 3 3 3 3
10 10 10 10 10 10 11 11 11 11 10 10 10 10 10 10 10 10 9 9 9 9 9 9 8 8 8 8 7 7 7 6 6 6 6 6 6 6 6 6 5 5 5 5 5 5 5 5 4 4 4 4 3 3 3 3 3 3 2 3 3 3 3 3 3 3 4 3 3
10 10 10 10 10 10 10 10 10 10 10 10 10 10 10 10 9 9 9 9 9 9 9 8 8 8 8 8 7 7 6 6 5 5 6 6 5 5 5 5 5 5 5 5 5 4 4 4 4 4 4 3 3 3 3 3 2 2 3 3 3 3 3 3 3 3 4 4 4
10 10 9 9 9 9 10 10 10 10 10 10 10 10 10 9 9 9 9 9 9 9 9 8 8 8 8 8 7 7 6 5 5 5 5 5 5 5 5 5 5 5 5 4 4 4 4 4 4 3 3 3 3 3 3 2 2 3 3 3 3 3 3 3 3 3 3 3 3
10 9 9 9 9 9 9 9 9 9 10 10 10 9 9 9 9 9 9 9 9 9 8 8 8 8 8 8 7 6 5 5 5 5 5 5 5 5 5 5 5 5 4 4 4 4 4 3 3 3 3 3 3 3 2 2 3 3 3 3 3 3 3 3 3 3 3 3 3
10 9 9 8 8 8 8 9 9 9 9 9 9 9 9 9 9 9 9 9 9 9 9 8 8 8 8 8 7 6 5 5 5 5 5 5 5 4 4 5 4 4 4 4 4 4 3 3 3 3 3 3 3 2 2 2 3 3 3 3 3 3 3 3 3 3 3 3 3
10 9 8 8 8 8 8 8 9 9 9 9 9 9 9 9 9 9 9 9 9 9 8 8 8 8 8 7 7 6 6 5 5 5 5 4 4 4 4 4 4 4 4 4 3 3 3 3 2 2 2 2 2 2 2 2 3 3 3 3 3 3 3 3 3 3 3 3 3
9 9 8 8 8 8 8 8 8 8 8 8 8 8 8 9 9 9 9 9 8 8 8 8 7 7 7 7 7 6 5 5 5 5 4 4 4 4 4 4 4 4 3 3 3 3 2 2 2 2 2 2 2 2 2 3 3 3 3 3 3 3 3 3 3 3 3 3 3
9 8 8 7 7 7 7 8 8 8 8 8 8 8 8 8 8 8 8 8 8 8 8 8 7 7 7 7 6 6 5 5 5 4 4 4 4 4 4 4 4 4 3 3 3 2 2 2 2 2 2 2 2 2 2 3 3 3 3 3 3 3 3 3 3 3 3 3 2
9 8 8 7 7 7 7 7 7 7 7 7 7 7 8 8 8 8 8 8 8 8 8 7 7 7 7 7 6 6 5 5 4 4 4 4 4 4 4 4 3 3 3 3 3 2 2 2 2 2 2 2 2 3 3 3 3 3 3 3 3 3 3 3 3 3 3 2 2
8 8 7 7 7 7 7 6 6 6 6 6 7 7 7 7 7 8 8 8 8 7 7 7 7 7 6 6 6 5 5 5 4 4 4 4 4 4 3 3 3 3 3 3 3 2 2 2 2 2 2 2 2 3 3 3 3 3 3 3 3 3 3 3 3 3 2 2 2
8 7 7 7 7 6 6 6 6 6 6 6 6 6 7 7 7 7 7 7 7 7 7 6 6 6 6 6 5 5 5 5 4 4 4 4 3 3 3 3 3 3 3 3 2 2 2 2 2 2 3 3 3 3 3 3 3 3 3 3 3 3 3 3 3 2 2 2 2
7 7 7 7 7 6 6 6 6 5 5 6 6 6 6 6 6 6 6 6 6 6 6 6 6 6 6 5 5 5 5 4 4 4 4 3 3 3 3 3 3 3 3 3 2 2 3 3 2 2 3 3 3 3 3 3 3 3 3 3 3 3 3 2 2 2 2 2 2
7 7 7 7 6 6 6 6 5 5 5 6 6 6 6 6 6 6 5 5 5 5 6 6 6 6 6 6 5 5 4 4 4 3 3 3 3 3 3 3 3 3 3 2 2 2 3 3 3 3 3 3 3 3 3 3 3 3 3 3 3 3 2 2 2 2 2 2 1
7 7 7 7 6 6 6 5 5 5 5 5 5 5 5 5 5 5 5 5 5 5 5 5 6 6 6 5 5 5 4 4 3 3 3 3 3 3 2 3 3 3 3 2 2 2 3 3 3 3 3 3 3 3 3 3 3 3 3 3 2 2 2 2 2 2 2 1 1
7 6 6 6 6 6 6 5 5 5 5 5 5 5 5 5 5 5 5 5 5 5 5 5 5 5 5 5 5 4 4 4 3 3 3 3 2 2 2 2 3 3 2 2 2 2 3 2 2 2 3 3 3 3 3 3 3 2 2 2 2 2 2 2 2 2 1 1 1
6 6 6 6 6 6 6 5 5 5 5 5 5 5 5 5 5 5 5 4 4 4 4 5 5 5 5 5 4 4 4 3 3 3 3 2 2 2 2 2 2 2 2 2 2 2 2 2 2 2 2 2 2 2 2 2 2 2 2 2 2 2 2 2 2 2 1 1 1
Height
790 791 791 791 789 789 791 793 794 795 795 796 796 796 796 797 798 800 802 803 804 806 807 808 809 808 806 804 804 805 806 806 806 807 807 806 806 806 806 807 807 807 808 810 811 811 811 810 810 810 809 809 809 808 808 808 808 808 808 808 808 808 808 809 809 809 809 810 810
788 789 790 790 788 787 789 791 792 792 792 792 792 792 793 794 795 796 799 801 804 805 806 806 806 806 804 803 804 805 805 806 806 806 806 806 806 806 806 806 806 806 806 807 809 809 809 809 809 808 808 808 807 807 807 807 807 807 807 807 807 807 807 807 808 808 808 809 809
786 787 788 788 787 787 788 790 790 791 791 791 791 791 791 792 793 793 795 798 801 802 803 803 804 804 803 803 804 804 804 805 805 804 804 804 804 805 806 806 806 806 806 806 807 808 808 808 808 807 807 806 806 806 806 806 806 806 806 806 806 806 806 806 807 807 807 808 807
785 786 786 786 787 788 789 790 790 790 790 790 791 791 791 791 791 791 792 795 798 800 800 801 801 802 802 803 803 803 803 802 802 801 802 802 803 803 805 806 806 806 805 805 806 806 806 806 806 806 806 806 805 805 805 805 805 805 805 805 805 805 805 805 806 806 806 806 806
783 784 785 785 786 787 789 790 791 790 790 790 790 790 790 790 790 790 791 793 795 796 798 798 799 800 801 801 801 801 801 801 800 800 800 800 800 802 804 805 805 805 804 804 804 805 805 805 805 805 804 804 804 804 804 804 804 804 804 804 804 804 804 805 805 805 805 805 805
783 783 784 785 785 786 787 789 790 791 790 790 790 790 789 789 788 788 789 791 792 794 795 796 796 797 798 799 799 800 800 800 799 798 798 798 799 801 803 803 803 803 802 802 803 803 803 804 804 803 803 803 803 803 803 803 803 803 803 803 803 803 803 804 804 804 804 804 803
783 783 784 784 785 785 786 787 788 789 790 789 789 789 788 788 788 787 787 788 789 791 792 792 793 794 795 796 797 798 797 797 797 797 797 798 799 800 801 801 801 801 801 801 801 801 802 802 802 802 802 802 802 802 801 802 802 802 802 802 802 802 802 802 802 802 802 802 801
783 783 784 784 784 785 785 785 786 787 787 788 787 787 787 788 788 788 787 787 787 787 788 789 790 790 791 792 793 793 794 794 795 796 796 797 798 799 799 799 799 799 800 800 800 801 801 801 801 801 801 801 801 801 801 801 801 801 801 801 801 801 801 801 801 801 801 801 800
782 783 783 783 784 784 784 784 785 785 785 786 786 786 786 786 787 787 787 787 787 786 786 786 786 787 788 788 788 789 789 791 792 793 794 795 796 797 797 797 798 798 798 799 799 799 800 800 800 800 800 800 800 800 800 801 801 801 801 801 801 800 800 800 800 800 799 799 798
782 782 782 782 783 783 783 783 783 784 784 784 784 784 785 785 786 786 786 787 787 786 786 785 785 785 785 786 786 786 786 787 788 790 791 793 794 795 795 796 796 796 797 797 798 798 799 799 799 799 799 799 799 799 800 800 801 801 800 800 800 800 799 799 798 798 797 797 796
781 781 782 782 782 782 782 782 782 782 782 782 783 783 783 784 784 785 785 786 786 786 786 785 785 785 785 785 785 785 785 785 786 786 788 790 791 792 794 794 795 795 796 796 796 797 797 798 798 798 798 798 798 799 799 800 800 800 800 799 799 798 798 797 797 796 796 795 795
781 781 781 781 781 781 781 781 781 781 781 782 782 782 782 783 783 783 784 784 784 785 785 785 785 785 786 786 786 786 786 786 785 785 785 786 788 790 791 792 793 794 794 795 795 796 796 796 797 797 797 797 797 798 798 799 799 799 799 798 798 797 796 796 795 795 794 794 794
780 780 780 780 780 780 780 780 781 781 781 781 781 781 781 782 782 782 783 783 783 784 784 785 785 786 786 787 787 788 788 788 787 786 785 785 786 787 789 791 792 792 793 794 794 795 795 795 796 796 796 796 797 797 797 798 798 798 797 797 796 796 795 795 794 794 793 793 793
779 779 779 779 779 779 779 779 779 780 780 780 780 781 781 781 781 782 782 783 783 784 784 785 786 786 786 787 788 789 789 789 789 789 787 785 784 785 786 788 790 791 792 792 793 793 794 794 795 795 796 796 796 796 797 797 796 796 796 796 795 794 794 793 793 793 792 792 792
779 779 778 778 778 778 778 779 779 779 779 779 780 780 780 781 781 781 782 782 783 784 784 785 785 786 786 787 787 788 788 789 789 789 788 786 784 784 785 787 788 790 791 791 792 792 793 793 794 794 795 795 795 796 796 796 795 795 795 794 794 793 793 792 792 792 792 792 791
777 777 778 778 778 778 778 778 778 778 779 779 779 779 780 780 781 781 781 782 783 783 784 784 785 785 786 786 786 787 787 788 788 789 788 786 784 783 784 785 787 788 789 790 791 791 792 792 793 794 794 794 794 794 794 794 794 794 793 793 792 792 792 791 791 791 791 791 791
776 776 776 777 777 777 777 777 777 778 778 778 779 779 779 779 780 780 781 781 782 782 783 783 784 785 785 785 786 786 786 786 787 787 787 786 784 783 783 784 786 786 787 788 789 790 791 791 792 792 793 793 793 793 793 793 792 792 792 791 791 791 791 791 790 790 790 791 791
775 775 775 776 776 776 776 776 776 777 777 777 778 778 778 779 779 779 780 780 781 781 782 782 783 784 784 784 785 785 785 786 786 786 786 785 783 782 783 783 784 785 786 787 787 788 789 790 791 791 791 791 791 791 791 791 791 791 791 791 790 790 790 790 790 790 790 790 790
774 774 774 774 774 775 775 775 776 776 776 776 777 777 777 778 778 778 779 779 780 781 781 781 782 782 783 783 784 784 785 785 786 786 785 783 782 782 782 782 783 784 785 785 786 787 788 788 789 790 790 790 790 790 790 790 790 790 790 789 789 789 789 789 789 789 789 789 789
772 772 772 773 773 773 773 774 774 775 775 775 776 776 776 777 777 777 778 778 779 780 780 781 781 781 782 782 783 783 784 784 785 784 783 782 781 781 781 781 781 782 783 784 785 786 786 787 788 788 789 789 789 789 789 789 789 789 788 788 788 788 787 787 787 787 788 788 788
771 771 771 771 772 772 772 772 773 773 774 774 774 775 775 776 776 776 777 778 778 779 779 779 780 780 781 781 781 782 782 783 783 782 781 780 779 779 779 780 780 781 782 783 784 785 786 786 787 787 788 788 788 788 788 788 788 787 787 787 786 786 786 786 786 786 786 786 787
770 770 770 771 771 771 771 771 771 772 772 773 773 774 774 775 775 776 776 776 777 777 778 778 778 779 779 780 780 781 781 781 781 780 779 778 778 778 778 778 779 780 781 782 783 784 785 785 786 786 787 787 787 787 787 786 786 786 785 785 785 785 785 785 785 785 785 786 786
769 769 769 769 770 770 770 770 770 771 771 771 772 773 773 773 774 774 775 775 776 776 776 776 777 777 778 778 779 779 779 779 779 778 777 777 776 777 777 778 779 780 781 781 782 783 784 785 785 785 786 786 786 785 785 785 784 784 784 783 783 783 783 783 784 784 785 785 785
768 768 768 768 768 768 768 768 769 769 770 770 771 771 772 772 772 773 773 774 774 774 775 775 776 776 776 777 777 777 777 777 776 776 776 776 776 776 776 777 778 779 780 781 781 782 783 783 784 784 784 784 784 784 783 783 783 783 782 782 782 781 782 782 782 783 784 784 784
767 766 766 766 766 767 767 767 767 767 768 769 770 770 771 771 771 771 772 772 772 773 773 774 774 774 775 775 775 775 775 775 775 775 775 775 775 776 776 777 778 778 779 780 781 781 781 782 782 782 782 782 782 782 782 781 781 781 781 781 781 781 781 781 782 782 783 783 784
766 765 765 765 765 765 765 766 766 766 766 767 768 769 769 769 770 770 771 771 771 771 772 772 772 773 773 773 773 773 773 773 773 773 774 774 774 775 776 776 777 778 778 779 780 780 780 781 781 781 781 781 781 781 780 780 780 780 780 780 780 780 780 781 781 781 782 782 783
764 764 764 764 764 764 764 764 764 765 765 766 766 767 767 768 769 769 769 769 770 770 770 771 771 771 771 771 771 771 771 771 772 772 773 773 773 774 775 776 776 777 777 778 778 779 779 779 780 780 780 780 780 779 779 779 779 779 779 779 779 779 780 780 780 781 781 782 782
763 762 762 762 762 762 762 763 763 763 764 764 765 766 766 767 767 767 768 768 768 768 769 769 769 769 769 769 769 769 770 770 771 771 772 772 773 773 774 775 775 776 776 777 777 777 778 778 778 778 779 778 778 778 778 778 778 778 778 778 778 779 779 779 779 780 781 781 781
762 761 761 761 761 761 761 761 761 762 762 762 763 764 765 765 766 766 766 766 766 766 767 767 767 768 768 768 768 768 768 769 770 770 771 771 772 772 773 773 774 775 775 775 776 776 776 776 776 776 777 777 777 776 776 776 776 777 777 777 778 778 778 778 779 779 780 781 781
761 760 760 760 759 759 760 760 760 760 761 761 762 762 763 763 764 764 764 765 765 765 765 766 766 766 766 766 766 766 767 767 768 769 770 770 771 771 772 772 773 773 774 774 774 774 774 774 775 775 775 775 775 775 775 776 776 776 776 776 777 777 777 778 778 779 779 780 780
759 759 759 758 758 758 758 758 759 759 760 760 761 761 761 761 762 762 762 763 763 763 764 764 764 765 765 765 765 765 766 766 767 767 768 769 769 770 770 771 771 772 772 772 772 772 772 773 773 773 774 774 774 774 774 774 775 775 775 776 776 776 777 777 778 778 779 779 780
758 758 757 757 757 756 756 757 757 758 758 759 759 759 759 760 760 760 761 761 761 762 762 762 763 763 763 764 764 764 765 765 766 766 766 767 768 768 769 769 770 770 771 771 771 771 771 771 772 772 772 772 773 773 773 773 774 774 774 775 775 776 776 777 777 778 778 778 779
757 756 756 756 756 755 756 756 756 756 757 757 757 757 758 758 758 759 759 760 760 760 761 761 761 761 762 762 762 763 763 764 764 765 765 766 766 767 767 767 768 769 769 769 769 770 770 770 770 771 771 771 772 772 772 772 773 773 774 774 775 775 776 776 777 777 777 778 778
756 755 755 754 754 754 755 755 755 755 756 756 756 756 756 756 757 757 757 758 758 758 759 759 760 760 760 761 761 761 762 762 763 763 764 764 765 765 766 766 766 767 768 768 768 768 768 769 769 769 770 770 771 771 771 772 772 773 773 774 774 775 775 776 776 776 777 777 778
755 754 754 753 753 753 754 754 754 754 754 754 754 755 755 755 755 755 756 756 756 757 757 758 758 759 759 760 760 761 761 761 761 762 762 763 763 763 764 764 765 766 766 766 767 767 767 767 768 768 769 770 770 770 771 771 771 772 772 773 774 774 775 775 775 776 776 776 777
754 753 752 752 752 752 752 752 753 753 753 753 753 753 753 753 754 754 754 755 755 756 756 756 757 757 758 758 759 759 759 760 760 761 761 761 762 762 762 763 764 764 765 765 766 766 766 766 767 767 768 768 769 769 770 770 771 771 772 772 773 773 774 774 774 775 776 776 777
753 752 751 751 751 751 751 751 751 751 751 751 751 751 752 752 752 753 753 754 754 754 754 755 755 756 756 756 757 757 758 759 759 760 760 760 761 761 761 762 762 763 764 764 765 765 765 766 766 766 767 767 768 769 769 770 770 771 771 771 772 773 773 773 774 774 775 776 776
753 751 751 750 749 749 749 749 750 749 749 749 750 750 751 751 751 752 752 752 752 753 753 753 754 754 755 755 756 756 757 758 758 758 759 759 759 760 760 761 761 762 762 763 763 764 764 765 765 766 766 766 767 768 768 769 769 770 770 771 771 772 772 773 773 774 774 775 776
751 751 750 748 748 747 747 748 748 747 747 748 748 749 749 750 750 750 751 751 751 751 751 752 752 753 753 754 755 756 756 756 757 757 757 758 758 759 759 759 760 761 761 762 762 763 763 764 764 765 765 766 766 767 768 768 768 769 770 770 771 771 771 772 772 773 774 775 775
750 749 748 747 746 746 746 746 746 746 746 746 747 747 748 748 749 749 750 750 750 750 751 751 751 752 752 753 754 754 755 755 756 756 756 757 757 758 758 758 759 760 760 761 761 762 762 763 763 764 764 765 766 766 767 767 768 768 769 769 770 770 771 771 772 772 773 774 774
749 748 747 746 745 745 744 744 744 745 745 745 746 746 746 747 747 748 748 748 749 749 749 750 750 751 751 752 752 753 753 754 754 755 755 756 756 756 757 757 758 758 759 760 760 761 761 762 762 763 763 764 765 766 766 766 767 767 768 768 769 769 770 771 771 772 772 773 774
Wind_Speed
17 17 16 13 9 9 12 15 16 17 17 17 18 18 18 16 14 12 10 10 11 13 15 15 15 14 14 14 14 14 16 17 17 17 16 15 15 15 15 16 15 14 15 18 20 19 18 16 16 15 15 15 14 14 13 12 11 11 10 10 10 10 11 11 12 12 12 11 11
15 16 15 12 9 9 11 14 15 17 18 19 19 19 19 18 16 13 11 11 13 15 16 17 18 17 17 17 16 16 17 17 17 16 15 14 13 14 15 17 18 17 16 17 17 16 16 15 15 14 14 14 13 12 11 11 10 9 9 10 10 11 12 12 12 12 11 11 11
15 15 14 13 13 13 13 14 14 15 15 16 16 16 17 17 16 14 12 12 15 17 18 20 21 22 21 20 18 16 16 16 15 14 13 14 15 16 18 19 19 17 15 14 14 14 14 14 14 13 13 12 12 10 9 9 9 9 9 10 11 11 11 11 10 10 10 10 11
19 18 18 18 17 17 17 16 15 13 13 13 14 15 16 16 15 13 12 14 17 21 22 22 23 23 23 21 18 17 16 15 14 14 15 16 17 19 20 20 18 15 13 12 12 13 13 13 13 13 12 12 11 10 9 8 8 8 9 9 10 10 10 9 9 9 10 11 11
22 21 21 21 21 20 20 18 16 14 13 14 14 15 16 16 15 14 13 15 19 22 24 24 23 22 21 20 19 18 17 17 16 17 18 19 20 21 21 20 16 14 13 12 13 13 13 13 12 12 12 11 10 9 8 8 8 8 8 8 8 8 8 9 9 10 11 11 12
19 21 21 22 22 22 21 20 19 17 15 15 16 17 18 18 17 16 15 15 17 19 21 22 22 21 21 20 20 21 21 21 21 20 20 21 21 21 20 18 15 14 13 13 13 13 12 12 11 11 10 10 9 8 8 8 7 7 7 7 7 7 8 9 10 11 12 12 12
15 17 19 20 21 21 22 21 21 20 19 19 19 19 20 21 21 21 19 17 16 17 19 21 22 22 22 22 23 24 24 23 22 23 24 23 23 21 19 17 15 14 14 14 13 12 12 11 10 9 9 8 8 8 8 7 7 7 7 7 8 8 8 9 10 11 11 11 11
14 14 15 17 18 19 21 21 22 22 23 23 23 23 23 24 25 25 24 23 21 21 21 21 22 23 23 23 24 25 25 25 25 26 25 23 22 20 18 17 15 15 14 13 12 11 10 10 9 8 8 8 7 7 7 7 7 7 7 7 8 8 8 8 9 9 9 9 10
16 15 15 16 17 18 19 20 21 22 24 25 25 26 27 27 28 29 29 28 27 26 25 24 24 24 24 25 25 26 26 26 26 25 24 22 20 19 18 17 15 14 14 13 12 10 9 9 8 7 7 7 7 6 6 6 6 7 7 7 7 7 7 7 7 7 7 7 8
17 17 17 17 17 18 18 19 20 21 22 23 24 26 27 29 30 31 31 31 30 29 28 27 26 26 26 26 27 28 28 27 26 24 22 21 19 18 17 16 15 14 13 12 11 10 9 8 7 7 7 6 6 6 7 7 7 7 7 7 7 7 7 7 7 7 6 6 6
17 17 17 18 18 18 19 19 20 20 20 21 22 23 25 27 29 30 31 31 31 30 29 28 27 27 27 27 28 28 27 26 25 23 22 20 19 18 17 16 15 13 12 11 10 9 8 8 7 7 7 7 7 7 7 7 7 7 6 7 7 7 7 7 7 7 7 6 6
17 17 17 18 18 19 19 19 19 19 20 20 21 22 23 25 26 27 28 29 29 29 28 27 26 26 26 26 26 25 25 24 23 22 21 20 18 17 16 15 13 12 11 9 9 8 7 7 7 7 7 8 8 8 8 8 8 8 7 7 8 8 8 7 7 7 8 7 7
16 17 18 18 18 18 19 19 19 19 20 20 21 22 22 23 24 24 25 26 26 26 25 24 23 23 23 22 22 21 20 19 19 19 19 18 17 15 14 13 12 11 9 8 8 7 7 8 8 8 9 9 9 9 9 9 9 9 9 8 8 8 8 8 8 8 9 9 8
16 16 17 18 19 19 19 19 19 19 20 20 21 21 21 22 22 22 22 22 22 22 21 21 20 19 19 18 18 18 17 17 17 16 16 15 15 14 13 12 11 10 9 8 7 7 8 8 8 9 10 10 10 9 9 10 10 10 9 8 8 8 9 9 10 10 10 10 9
15 16 17 18 19 19 19 19 19 19 19 20 20 20 20 20 20 20 20 19 19 18 18 18 18 18 17 17 17 17 17 16 16 16 15 14 13 12 12 11 10 9 8 8 7 8 8 8 8 9 9 10 9 9 9 9 9 9 8 8 8 8 9 10 11 11 11 10 9
15 16 16 17 18 19 20 20 20 19 19 20 20 19 19 19 19 19 19 18 18 17 17 17 17 17 17 18 17 17 17 17 17 16 15 14 13 12 11 10 10 9 8 7 7 8 8 8 9 9 10 10 9 9 9 9 8 8 8 8 8 9 10 11 11 11 11 10 9
16 16 16 17 18 19 20 21 21 20 20 20 20 20 19 19 19 19 19 18 17 17 17 17 17 17 17 17 17 17 17 17 17 16 16 14 12 11 10 9 9 8 7 7 7 8 8 8 9 10 10 10 10 10 10 10 9 9 9 9 9 10 11 11 11 11 11 10 8
17 17 17 17 18 18 19 20 21 21 21 21 21 20 20 20 19 19 18 18 17 17 17 16 16 16 16 16 16 16 16 16 17 16 15 13 11 10 9 8 8 7 7 7 8 8 8 9 9 10 10 10 10 10 10 10 10 9 10 10 11 12 12 13 12 12 11 10 8
17 17 17 17 18 18 19 20 21 21 22 22 22 21 21 20 20 19 18 18 17 17 16 16 16 16 15 15 15 15 16 16 16 15 14 12 10 9 8 8 7 7 7 7 8 8 9 9 10 10 10 10 10 10 10 10 10 10 11 12 14 15 15 14 14 13 12 11 9
18 18 18 18 18 18 18 19 20 21 22 22 23 22 22 21 20 19 19 18 18 17 16 16 16 15 15 15 15 15 15 16 15 14 12 11 9 8 7 7 7 7 7 7 8 8 9 9 10 11 11 11 11 10 10 11 12 13 14 16 17 17 17 16 15 13 12 11 9
19 19 19 18 18 18 18 19 20 21 22 23 23 23 22 21 20 20 19 18 18 17 16 16 15 15 14 14 14 15 15 14 14 12 10 9 8 7 7 7 7 7 7 8 9 9 10 10 11 11 11 11 12 12 13 14 16 17 18 19 20 19 18 16 14 13 11 10 8
20 19 19 19 19 19 19 19 20 22 23 23 23 23 22 21 20 19 19 18 17 16 16 15 14 14 13 13 13 14 13 13 11 10 8 7 6 6 6 6 6 7 7 8 9 10 11 11 11 11 12 13 13 15 16 17 18 19 20 20 20 19 17 14 12 11 10 9 8
20 20 20 20 20 20 20 20 21 22 23 23 23 23 22 21 20 19 18 17 16 16 15 14 13 13 12 12 12 12 12 11 10 8 7 6 6 6 6 6 7 7 8 9 10 10 11 12 13 14 14 15 16 16 17 18 19 19 19 19 18 16 14 12 10 9 9 8 8
20 20 20 20 20 20 20 21 22 23 23 24 23 23 22 21 19 18 18 17 16 15 14 14 13 12 12 11 11 11 11 10 9 8 7 6 6 6 7 7 8 8 9 9 10 11 12 13 14 15 15 16 17 18 18 19 19 18 17 16 15 13 11 10 9 9 9 8 8
20 20 21 21 21 21 20 21 21 23 24 24 24 23 22 21 20 19 18 17 16 15 14 13 12 12 11 11 11 11 10 10 9 8 7 7 7 7 8 9 9 10 10 10 11 12 13 13 13 14 15 16 17 18 18 18 17 16 15 13 12 11 11 10 9 9 9 8 8
21 21 21 22 22 22 21 21 22 23 23 24 24 23 22 21 20 19 18 17 16 15 14 13 12 11 11 11 10 10 9 9 8 8 8 8 8 9 10 10 11 11 11 11 12 13 13 13 13 14 14 15 16 17 17 16 16 14 13 11 11 11 11 11 10 10 9 9 9
22 21 21 22 22 23 22 22 22 22 23 24 24 24 23 22 21 20 19 18 17 16 15 14 13 12 11 10 10 9 9 8 8 8 9 9 10 10 11 11 12 12 12 13 13 14 14 15 14 15 15 16 16 16 16 15 15 13 11 10 9 9 10 11 11 11 10 9 9
22 22 22 22 23 23 23 22 22 23 23 24 24 24 23 22 21 20 19 18 17 16 15 14 13 12 11 11 10 9 8 8 8 9 10 10 11 11 12 12 13 13 14 14 15 15 15 15 15 15 15 15 15 15 14 14 13 12 10 8 7 8 9 10 10 10 10 10 10
23 22 22 22 23 23 23 23 23 23 24 24 25 25 24 23 22 21 20 19 18 17 16 15 14 13 12 11 10 9 9 9 10 10 11 12 12 13 13 13 14 14 14 15 15 15 15 15 15 14 13 13 12 12 12 11 11 11 10 9 8 7 8 9 9 10 9 9 10
23 22 22 22 23 23 23 24 24 24 24 24 25 25 25 24 23 22 21 20 19 19 18 16 15 13 12 11 10 10 10 11 11 12 13 13 14 14 14 14 14 14 15 15 16 16 15 14 13 11 10 10 10 10 10 10 10 11 10 10 9 9 9 9 9 9 9 9 9
23 22 22 22 23 24 24 24 24 24 24 25 25 26 26 25 24 24 23 21 20 19 18 17 15 14 13 12 11 11 11 12 13 13 14 15 15 15 15 15 15 15 16 16 16 15 13 11 10 9 8 8 9 9 9 9 9 9 9 9 9 9 8 8 8 9 9 9 9
23 23 22 23 23 24 24 24 24 24 24 25 26 26 27 26 26 25 23 22 21 20 19 17 16 15 14 13 12 12 12 13 14 14 15 15 16 16 16 16 16 16 16 15 14 12 10 8 8 7 8 8 8 9 9 9 8 7 7 8 8 8 8 8 8 8 8 8 9
23 23 23 23 24 24 24 24 24 24 25 25 26 27 27 27 26 25 24 23 22 21 20 19 18 17 16 15 13 13 12 13 14 15 15 16 16 16 16 16 16 16 15 13 11 9 8 7 7 8 7 7 8 8 9 8 7 6 7 7 8 8 8 7 7 7 7 8 8
22 22 23 23 24 24 24 24 24 24 24 25 26 27 27 27 26 26 25 24 23 22 21 20 19 18 17 15 14 13 13 13 14 15 16 16 16 16 16 16 15 14 12 10 9 9 8 7 7 7 7 7 8 8 8 7 7 7 8 8 8 7 7 6 6 6 6 6 7
21 22 23 23 23 23 23 24 24 24 24 25 26 27 27 27 27 27 26 25 24 23 22 21 20 18 17 16 14 13 13 14 15 15 16 16 16 16 16 15 14 12 10 9 9 9 8 8 7 6 6 7 8 9 8 8 8 8 8 9 8 7 6 5 5 4 4 5 6
21 21 22 23 23 23 23 23 23 24 25 26 27 27 28 28 28 27 26 26 24 24 23 22 21 19 18 17 16 15 15 15 15 15 15 15 15 15 15 13 12 10 9 9 9 9 8 7 6 5 6 8 9 9 9 9 9 9 9 9 8 7 5 4 4 4 4 5 6
21 20 21 22 22 22 22 23 23 24 25 26 27 27 28 28 27 27 26 25 24 24 23 23 22 21 20 19 18 17 16 15 15 15 15 15 15 14 13 12 11 10 9 9 8 8 8 7 6 6 8 10 10 9 9 9 9 9 9 9 8 6 5 5 4 5 6 7 7
21 20 20 21 21 22 22 22 23 24 25 27 27 27 27 27 27 27 26 25 24 24 24 23 23 22 21 20 19 17 16 15 15 15 15 14 14 13 12 12 11 10 9 9 8 8 8 7 6 7 9 10 10 10 10 10 10 10 10 9 8 7 6 6 6 7 8 8 8
22 20 20 20 21 21 22 22 23 25 26 26 26 26 26 26 26 26 26 25 25 24 24 24 23 23 22 20 19 17 16 15 15 14 14 14 13 13 12 12 11 10 9 9 9 8 8 7 8 9 10 10 10 10 10 10 10 10 10 9 8 7 7 7 8 9 10 10 9
22 21 20 20 21 21 22 22 24 24 25 25 25 25 25 25 26 26 26 25 25 25 24 24 23 23 22 20 19 18 17 16 15 15 14 14 13 12 12 12 12 11 10 9 9 9 8 9 9 10 10 10 10 10 10 10 10 10 10 9 9 8 8 9 9 10 11 11 11
22 21 20 20 20 20 21 22 23 23 24 24 24 24 24 25 25 25 24 25 25 25 24 24 23 23 22 21 19 18 17 16 16 15 14 14 13 13 13 13 12 11 11 10 10 10 9 9 10 11 11 10 10 10 10 10 10 11 10 10 10 10 10 10 11 12 13 12 12
Wind_Direction
248 249 251 250 250 250 252 255 256 257 259 260 263 261 257 250 243 241 244 247 246 240 235 233 236 246 260 270 265 253 243 239 238 239 241 243 247 252 259 265 269 270 266 261 259 261 266 274 280 285 289 291 294 296 295 292 289 286 282 280 281 283 287 291 293 293 293 292 289
246 249 254 260 264 260 255 254 254 251 248 244 241 239 236 230 221 216 221 234 238 237 236 238 245 254 265 273 268 255 242 235 234 235 239 247 257 267 274 278 279 273 261 249 250 257 268 276 283 287 291 293 295 295 294 291 287 284 284 285 286 288 291 294 295 294 292 290 286
254 251 256 264 270 270 264 257 251 246 241 235 229 224 219 214 209 205 210 228 237 238 240 245 253 261 266 266 261 248 236 230 232 240 252 264 274 281 286 286 279 268 255 248 253 263 272 279 283 287 290 291 292 292 290 288 288 288 290 291 292 294 295 296 296 295 292 288 286
265 259 258 261 264 265 263 257 248 237 226 218 211 207 205 203 202 202 209 225 236 240 242 247 255 260 262 260 253 243 235 236 245 259 270 277 279 279 278 274 267 261 257 259 266 272 277 281 285 288 289 290 290 289 286 285 287 290 292 295 297 299 298 296 294 289 286 285 287
271 266 261 260 260 259 257 253 246 234 219 208 204 202 201 200 200 203 212 226 237 242 245 247 251 253 253 252 248 246 247 252 260 267 272 275 275 270 265 260 259 261 265 270 274 277 280 284 287 289 290 290 289 287 285 284 285 287 290 294 296 295 293 288 284 281 282 285 289
275 269 264 261 259 257 255 250 242 234 224 215 210 208 208 207 206 206 213 226 240 246 246 244 243 242 242 244 246 248 252 257 262 266 269 269 266 261 257 254 258 264 270 274 276 278 280 283 286 289 290 290 289 288 287 286 286 287 288 288 285 279 275 276 275 278 283 287 291
282 273 267 263 261 259 256 252 245 237 231 226 221 219 218 218 217 216 216 220 230 238 240 238 235 234 235 238 242 247 251 254 258 261 262 260 255 251 249 253 260 267 271 274 276 277 278 281 283 286 287 288 288 288 289 291 292 292 290 285 283 277 271 271 272 278 285 291 294
293 284 276 272 268 265 262 258 252 245 240 236 233 231 229 229 229 229 228 226 224 225 227 229 230 231 231 233 236 240 243 247 249 250 249 247 244 244 247 254 261 267 270 272 273 273 274 277 279 281 283 285 287 290 293 296 296 295 290 286 287 285 281 275 275 280 287 294 297
299 293 287 281 276 272 269 265 260 254 249 246 243 242 240 239 238 238 237 236 234 230 227 226 227 227 229 230 231 232 234 235 236 237 237 236 237 241 247 255 260 265 267 268 269 269 270 272 274 275 277 281 284 287 290 292 291 289 289 290 291 294 293 290 285 284 288 294 298
300 295 289 283 278 275 272 269 265 260 256 253 251 249 247 245 244 244 244 244 242 239 235 232 229 227 227 228 228 228 228 227 226 226 227 230 235 242 249 255 260 262 264 264 264 265 266 267 268 270 271 274 276 278 280 281 280 282 286 291 295 296 295 296 295 292 290 293 298
300 293 287 281 277 274 271 268 265 262 259 256 254 252 250 249 248 247 247 246 245 243 241 237 234 231 230 229 228 228 226 223 220 219 221 227 235 243 250 255 258 259 259 258 259 260 262 263 264 266 268 269 269 270 271 273 273 275 281 288 296 301 303 303 304 303 300 297 293
300 294 287 282 277 273 269 266 264 261 258 255 252 250 249 248 248 247 246 245 244 243 241 238 235 233 231 229 228 226 223 221 218 218 220 225 232 241 248 252 254 254 252 250 253 256 259 261 263 264 264 262 262 263 264 266 268 272 278 287 295 305 314 321 322 320 316 308 294
300 295 290 285 280 275 270 266 262 258 254 251 249 247 246 245 245 244 243 241 240 239 237 234 231 228 226 225 224 223 223 223 224 224 223 224 228 235 241 245 246 245 244 244 249 254 257 259 260 259 257 256 257 259 262 265 269 273 280 289 299 309 321 333 336 334 328 322 308
300 295 291 287 283 277 272 266 260 255 251 247 245 243 241 240 239 237 236 234 233 232 230 227 224 222 222 223 225 227 231 234 237 236 232 228 226 228 233 236 237 237 238 242 247 252 254 255 253 251 250 250 253 258 263 268 273 278 285 295 308 319 328 335 337 336 333 331 324
300 296 291 287 283 278 272 266 260 254 248 244 242 239 236 232 230 227 226 224 224 224 223 222 222 222 224 226 230 234 238 242 243 242 237 231 225 223 224 226 228 230 234 240 246 249 249 248 245 243 242 244 248 254 262 269 276 283 291 303 316 326 331 334 334 334 333 332 327
301 297 292 287 282 277 272 267 260 253 247 243 239 235 230 226 222 220 219 219 219 221 222 223 224 226 228 230 233 236 239 241 241 238 234 229 222 217 216 216 218 223 230 238 243 245 244 242 238 234 234 237 242 248 257 265 274 282 291 304 316 324 329 330 330 331 330 327 323
300 297 293 288 282 278 274 269 262 254 248 243 239 235 229 225 222 221 220 221 221 222 224 225 227 229 231 233 234 236 236 236 234 231 228 223 218 212 208 208 212 220 230 237 239 241 240 238 234 231 232 237 242 248 255 262 270 280 290 301 311 318 322 324 325 325 323 320 314
296 294 291 287 282 278 275 271 265 258 251 246 241 237 232 228 226 225 226 226 226 225 226 227 230 232 233 235 235 235 233 230 227 225 222 218 213 208 204 206 213 224 234 238 239 240 240 237 234 233 235 239 245 251 257 264 272 282 293 301 307 311 314 316 317 316 314 310 303
291 289 286 283 281 278 276 272 267 260 253 248 243 239 235 231 230 229 230 230 230 230 230 231 233 234 236 236 234 232 229 226 224 222 219 214 208 205 205 211 221 231 236 236 237 239 239 237 237 237 239 242 248 254 261 269 278 286 293 298 302 305 308 309 308 307 304 301 295
288 285 283 282 280 278 276 272 267 261 255 249 244 239 235 232 232 232 232 233 234 234 234 234 234 235 235 234 231 227 225 223 223 222 219 213 209 208 212 219 225 231 236 237 237 236 237 237 239 240 242 246 252 260 269 277 283 288 292 295 298 301 303 304 302 300 299 298 292
286 284 284 283 281 278 275 271 266 260 254 248 243 238 234 233 233 234 235 235 235 234 233 233 233 233 232 230 227 224 223 223 224 224 221 217 216 218 222 224 226 230 236 241 241 240 240 241 242 243 247 252 260 269 276 282 287 291 294 296 298 300 300 299 297 295 295 295 289
288 286 285 282 280 277 273 269 263 257 251 246 241 237 234 233 234 234 234 233 232 231 230 230 230 230 230 228 226 224 224 225 226 226 226 224 225 228 230 231 231 234 237 240 244 248 251 253 254 256 260 265 271 277 282 287 291 294 297 299 300 299 297 294 290 287 287 288 284
292 288 284 280 278 275 271 266 261 255 249 244 239 236 234 233 233 232 230 229 228 228 228 228 228 228 228 228 227 226 226 227 227 228 229 231 233 235 237 239 239 239 240 244 249 253 257 260 263 266 270 273 278 283 287 291 295 298 301 302 301 298 293 286 279 274 275 279 281
294 289 284 280 276 273 270 266 261 255 249 242 238 235 234 233 231 229 227 226 227 227 227 227 227 228 228 228 227 227 228 228 229 229 230 233 237 239 241 242 241 242 244 249 253 256 258 261 265 269 273 278 283 288 291 295 298 301 303 303 301 297 289 279 270 266 268 273 278
296 289 284 279 276 272 269 266 262 256 250 243 238 235 233 232 230 228 227 227 227 228 228 229 229 230 231 231 231 231 231 231 230 230 231 232 235 238 240 240 240 242 246 249 253 257 261 264 268 273 279 284 288 291 294 296 298 301 301 300 296 292 286 278 269 264 265 272 278
297 290 284 279 275 272 269 265 262 257 251 244 239 235 233 231 230 229 228 228 229 230 231 231 233 235 236 237 238 237 235 232 231 230 230 231 233 236 238 239 240 243 247 252 256 260 264 268 272 277 282 286 289 291 292 294 295 296 295 292 290 288 284 278 270 264 264 270 278
299 291 284 280 276 272 268 265 262 257 251 244 239 235 233 232 230 230 230 231 232 232 233 235 236 238 241 243 242 239 235 230 229 229 231 232 234 235 236 239 242 246 250 255 259 262 266 269 272 276 280 283 284 285 286 288 289 288 286 284 286 286 283 278 272 266 265 271 278
300 293 286 280 275 271 268 265 260 255 250 245 240 237 234 232 231 231 232 233 233 234 235 236 238 241 243 244 242 238 233 229 227 228 230 233 235 236 237 240 244 248 253 257 261 265 269 272 274 277 278 279 280 280 281 282 283 281 279 276 275 276 278 278 275 271 270 275 279
302 295 287 280 275 270 267 263 258 255 251 247 242 238 235 233 232 232 233 234 234 235 235 236 238 241 243 244 241 235 230 226 226 228 231 234 237 239 241 243 247 251 256 261 267 271 274 276 276 276 276 275 275 276 277 277 279 279 276 267 258 254 259 266 270 271 272 276 280
303 295 287 280 274 270 266 263 260 257 253 248 242 237 234 233 233 233 234 235 236 237 237 238 239 241 243 244 239 230 223 223 225 229 232 236 239 243 246 249 253 257 262 268 273 276 277 276 275 273 271 270 271 271 271 272 276 279 275 264 252 247 250 257 263 267 270 273 277
304 296 288 280 274 270 266 264 262 258 253 247 242 237 234 233 233 234 235 236 237 238 239 239 239 241 243 243 237 228 222 223 226 230 234 238 241 245 249 252 256 261 266 271 274 275 274 272 270 267 266 266 265 264 265 268 274 277 273 261 250 246 249 256 261 265 268 271 275
305 297 289 281 275 271 268 265 262 257 252 247 242 238 235 234 234 235 236 237 237 237 236 236 237 238 239 238 234 229 226 226 228 232 235 239 243 247 251 254 258 263 267 271 271 270 268 264 262 262 262 261 260 260 261 263 268 271 267 256 246 243 246 253 259 264 267 271 273
306 298 290 283 277 273 269 265 261 257 252 248 243 239 237 235 235 235 235 235 235 236 236 236 236 236 236 236 234 231 229 228 230 234 237 241 245 249 253 256 260 264 267 266 263 259 256 255 255 256 257 257 257 257 257 256 258 259 255 246 239 238 242 251 260 267 271 270 265
307 299 292 285 279 274 269 265 260 256 252 248 244 241 238 235 233 233 233 234 235 236 237 238 238 238 239 240 239 237 234 233 234 236 239 242 246 250 254 258 261 262 261 255 250 248 249 252 253 254 254 256 255 252 249 246 245 246 243 236 232 233 241 252 264 269 270 264 252
307 299 292 287 281 275 269 264 259 255 251 247 244 241 238 236 234 233 234 235 236 236 236 237 237 238 239 240 241 240 238 236 236 238 241 244 248 251 255 257 258 255 247 240 242 246 250 250 248 249 250 251 248 244 240 238 239 240 236 230 227 232 240 252 259 260 254 243 231
307 299 292 287 282 276 269 263 258 254 250 247 244 241 239 236 235 235 235 236 235 234 234 234 234 234 234 234 235 236 237 238 240 241 244 246 248 251 253 254 250 242 232 230 238 248 252 247 238 236 240 241 239 236 233 234 237 235 230 223 224 230 238 242 240 231 220 214 210
306 298 291 286 280 275 269 263 257 253 249 247 245 243 240 237 235 234 234 234 233 233 233 233 233 232 232 233 234 236 238 241 242 243 245 246 248 249 250 248 241 231 225 227 235 243 244 236 227 228 232 234 232 231 232 235 235 230 222 219 221 228 230 227 216 206 199 198 200
304 296 288 283 278 273 268 262 256 252 250 249 247 245 242 239 236 234 233 233 232 232 233 233 234 234 235 237 237 238 240 242 242 243 244 247 248 248 246 241 233 226 223 226 232 234 229 220 217 221 226 230 231 233 235 235 231 223 217 215 219 223 222 214 204 196 193 193 195
302 294 286 280 275 271 266 261 256 253 251 250 248 245 242 239 238 236 235 235 235 235 235 235 236 238 239 239 238 238 238 239 240 242 245 247 249 248 243 236 230 224 222 225 226 222 215 211 217 222 226 230 232 233 233 230 224 218 215 215 217 218 216 210 202 196 192 191 193
301 291 283 276 272 268 264 260 257 256 254 251 248 245 243 241 241 240 239 238 238 238 238 238 240 241 241 239 237 236 235 236 238 240 244 248 250 248 242 236 229 224 221 221 217 210 206 210 217 223 227 230 230 229 226 222 219 217 217 218 219 216 212 207 203 199 195 193 192
300 289 280 273 268 264 261 258 258 257 256 253 250 249 248 247 245 243 240 239 239 239 239 240 240 241 241 239 236 235 234 234 235 239 243 246 247 246 242 236 231 225 221 218 211 203 199 208 215 222 226 228 227 224 222 219 220 221 222 223 222 218 213 208 204 201 199 197 195